Weather in Pula

Croatia     44°52′08″N   13°50′58″E
В апреле 2022 года жителям России запретили посещать сайт meteo.paraplan.net по решению Генеральной прокуратуры. Аудитория сайта уменьшилась в 10 раз. Владельцы сайта не видят смысла в поддержке погодного сервера в таких условиях. Сайт будет закрыт в октябре.
temp.,
°C
wind,
m/s
gust,
m/s
humid.,
%
clouds,
%
prec.,
mm/h
press.,
hPa
HPBL,
m
25 september, sun
sun2523:00+19se81166100 1.4 10151358
02:00+18sse91081100 7.6 1015896
05:00+19sse131483100 5.2 1012999
08:00+18sse101185100 9.9 1012682
11:00+18ssw888699 1.6 1013697
14:00+18s9986100 3.4 1012728
17:00+20s8980100 1.6 1010866
20:00+20sw6779100 2.8 1011695
26 september, mon
mon2623:00+20sw3475100 4.5 1010296
02:00+20sw5679100 7.9 1009376
05:00+19w5683100 2.1 1008471
08:00+19w4580100 2.3 1008448
11:00+19wnw5580100 0.6 1009404
14:00+19wnw2274100 0.8 1007454
17:00+19w1273100 0.1 1006314
20:00+19s45730 1.1 1006249
27 september, tue
tue2723:00+20s56710 1.4 1005611
02:00+20wsw11126594 2.2 10041361
05:00+20wsw121463100 0.3 10021491
08:00+20sw9136196 0.8 10011680
11:00+20sw12136414 1.3 10011483
14:00+20wsw79670 2.3 10011081
17:00+20w226514 0.1 1001420
20:00+19nne01645 0.4 100249
28 september, wed
wed2823:00+19sw126864 0.7 100496
02:00+17ese557566 2.3 1004368
05:00+19sse466796 0.0 1004849
08:00+19se5672100 0.8 1003381
11:00+20s7966100 1.8 10031115
14:00+20s7866100 3.1 10021006
17:00+20s7869100 1.1 1001740
20:00+20s7971100 3.6 1001932
29 september, thu
thu2923:00+20wsw10127374 4.5 10011103
02:00+20wsw1013725 7.1 10011269
05:00+20sw10106948 1.3 10001177
08:00+20wsw1013727 2.3 10011236
11:00+20sw9127295 2.2 10031313
14:00+21sw697195 3.9 1004941
17:00+21ssw467197 1.9 1004160
20:00+21ssw91272100 2.7 1006527